Weather History for Prague, Czech Republic

Change the Weather History Date:

Sunday, October 24, 2010

  Actual Average Record
Temperature  
Mean Temperature 44 °F -  
Max Temperature 49 °F 46 °F 69 °F (2004)
Min Temperature 39 °F 33 °F 23 °F (2003)
Degree Days  
Heating Degree Days 21    
Moisture  
Dew Point 40 °F    
Average Humidity 77    
Maximum Humidity 93    
Minimum Humidity 59    
Precipitation  
Precipitation 0.00 in 0.04 in - ()
Sea Level Pressure  
Sea Level Pressure 29.78 in    
Wind  
Wind Speed 12 mph ()    
Max Wind Speed 20 mph    
Max Gust Speed -    
Visibility 6.5 miles    
Events Rain    
Averages and records for this station are not official NWS values.
T = Trace of Precipitation, MM = Missing Value Source: Averaged Metar Reports

Daily Weather History Graph

Daily Weather History Graph

Search for Another Location

Airport:

Trip Planner

Search our weather history database for the weather conditions in past years. The results will help you decide how hot, cold, wet, or windy it might be!

Date:

Astronomy

Oct. 24, 2010 Rise Set
Actual Time 7:39 AM CEST 5:54 PM CEST
Civil Twilight 7:05 AM CEST 6:27 PM CEST
Nautical Twilight 6:28 AM CEST 7:05 PM CEST
Astronomical Twilight 5:50 AM CEST 7:42 PM CEST
Moon 6:06 PM CEST (10/24) 9:19 AM CEST (10/24)
Length of Visible Light 11h 21m
Length of Day
10h 15m
Full, 98% of the Moon is Illuminated
Oct 24
Full
Oct 30
Last Quarter
Nov 6
New
Nov 13
First Quarter
Nov 21
Full

Hourly Weather History & Observations

Time (CEST) Temp. Windchill Dew Point Humidity Pressure Visibility Wind Dir Wind Speed Gust Speed Precip Events Conditions
12:00 AM 46.4 °F 40.4 °F 39.2 °F 76% 29.74 in - South 13.8 mph - N/A   Clear
12:30 AM 46.4 °F 40.1 °F 39.2 °F 76% 29.74 in - South 15.0 mph - N/A   Clear
1:00 AM 48.2 °F - 41.0 °F 76% 29.74 in - SSW 13.8 mph - N/A   Clear
1:30 AM 48.2 °F - 41.0 °F 76% 29.74 in 6.2 mi SSW 16.1 mph - N/A   Scattered Clouds
2:00 AM 46.4 °F 41.5 °F 41.0 °F 81% 29.74 in 6.2 mi SSW 10.4 mph - N/A   Mostly Cloudy
2:10 AM 47 °F - 41 °F 73% 29.77 in 19 mi SW 6.7 mph - - Rain Light Rain
2:30 AM 48.2 °F - 41.0 °F 76% 29.74 in 6.2 mi South 6.9 mph - N/A   Scattered Clouds
3:00 AM 50.0 °F - 41.0 °F 71% 29.74 in 6.2 mi SSW 9.2 mph - N/A   Overcast
3:30 AM 48.2 °F - 41.0 °F 76% 29.71 in 6.2 mi SSW 6.9 mph - N/A   Mostly Cloudy
4:00 AM 48.2 °F - 41.0 °F 76% 29.71 in 6.2 mi SSW 8.1 mph - N/A   Mostly Cloudy
4:30 AM 48.2 °F - 41.0 °F 76% 29.71 in 6.2 mi South 9.2 mph - N/A   Scattered Clouds
5:00 AM 50.0 °F - 41.0 °F 71% 29.71 in 6.2 mi South 10.4 mph - N/A   Scattered Clouds
5:30 AM 50.0 °F - 41.0 °F 71% 29.71 in 6.2 mi SW 15.0 mph - N/A Rain Light Rain
6:00 AM 48.2 °F - 42.8 °F 82% 29.74 in 6.2 mi SW 12.7 mph - N/A Rain Light Rain
6:30 AM 48.2 °F - 42.8 °F 82% 29.74 in 6.2 mi WSW 10.4 mph - N/A Rain Light Rain
7:00 AM 46.4 °F 39.0 °F 42.8 °F 87% 29.74 in 6.2 mi WSW 19.6 mph - N/A Rain Light Rain
7:30 AM 46.4 °F 40.7 °F 42.8 °F 87% 29.74 in 6.2 mi SW 12.7 mph - N/A Rain Light Rain
8:00 AM 46 °F - 42 °F 80% 29.78 in 37 mi SW 8.9 mph - - Rain Light Rain
8:00 AM 46.4 °F 41.5 °F 41.0 °F 81% 29.74 in 6.2 mi SW 10.4 mph - N/A   Partly Cloudy
8:30 AM 46.4 °F 40.7 °F 41.0 °F 81% 29.74 in 6.2 mi SSW 12.7 mph - N/A   Partly Cloudy
9:00 AM 46.4 °F 40.4 °F 41.0 °F 81% 29.74 in 6.2 mi SSW 13.8 mph - N/A   Partly Cloudy
9:30 AM 46.4 °F 40.4 °F 41.0 °F 81% 29.77 in 6.2 mi SW 13.8 mph - N/A   Partly Cloudy
10:00 AM 46.4 °F 40.7 °F 41.0 °F 81% 29.77 in 6.2 mi SW 12.7 mph - N/A   Scattered Clouds
10:30 AM 46.4 °F 40.7 °F 41.0 °F 81% 29.77 in 6.2 mi SSW 12.7 mph - N/A   Scattered Clouds
11:00 AM 46.4 °F 41.1 °F 41.0 °F 81% 29.77 in 6.2 mi SSW 11.5 mph - N/A   Scattered Clouds
11:30 AM 46.4 °F 40.1 °F 41.0 °F 81% 29.77 in 6.2 mi SW 15.0 mph - N/A   Mostly Cloudy
12:00 PM 48.2 °F - 39.2 °F 71% 29.77 in 6.2 mi SW 19.6 mph - N/A   Mostly Cloudy
12:30 PM 48.2 °F - 41.0 °F 76% 29.77 in 6.2 mi SW 18.4 mph - N/A   Mostly Cloudy
1:00 PM 48.2 °F - 39.2 °F 71% 29.77 in 6.2 mi SW 19.6 mph - N/A   Scattered Clouds
1:30 PM 48.2 °F - 39.2 °F 71% 29.77 in 6.2 mi SW 19.6 mph - N/A   Scattered Clouds
2:00 PM 49 °F - 39 °F 59% 29.81 in 44 mi WSW 17.9 mph - -   Overcast
2:00 PM 48.2 °F - 39.2 °F 71% 29.77 in 6.2 mi SW 19.6 mph - N/A   Mostly Cloudy
2:30 PM 48.2 °F - 39.2 °F 71% 29.77 in 6.2 mi WSW 17.3 mph - N/A   Scattered Clouds
3:00 PM 48.2 °F - 39.2 °F 71% 29.77 in 6.2 mi SW 19.6 mph - N/A   Scattered Clouds
3:30 PM 50.0 °F - 37.4 °F 62% 29.77 in 6.2 mi WSW 18.4 mph - N/A   Scattered Clouds
4:00 PM 48.2 °F - 39.2 °F 71% 29.77 in 6.2 mi SW 16.1 mph - N/A   Scattered Clouds
4:30 PM 48.2 °F - 37.4 °F 66% 29.80 in 6.2 mi SW 17.3 mph - N/A   Scattered Clouds
5:00 PM 48.2 °F - 37.4 °F 66% 29.80 in 6.2 mi SW 18.4 mph - N/A   Scattered Clouds
5:30 PM 48.2 °F - 37.4 °F 66% 29.80 in 6.2 mi SW 13.8 mph - N/A   Partly Cloudy
6:00 PM 46.4 °F 40.1 °F 37.4 °F 71% 29.80 in - SW 15.0 mph - N/A   Clear
6:30 PM 44.6 °F 38.1 °F 39.2 °F 81% 29.83 in - SSW 13.8 mph - N/A   Clear
7:00 PM 42.8 °F 35.8 °F 39.2 °F 87% 29.83 in 6.2 mi SSW 13.8 mph - N/A   Partly Cloudy
7:30 PM 42.8 °F 36.6 °F 37.4 °F 81% 29.83 in 6.2 mi SW 11.5 mph - N/A   Partly Cloudy
8:00 PM 42 °F - 37 °F 78% 29.89 in 37 mi WSW 11.2 mph - -   Scattered Clouds
8:00 PM 42.8 °F 36.2 °F 37.4 °F 81% 29.83 in 6.2 mi SW 12.7 mph - N/A   Partly Cloudy
8:30 PM 41.0 °F 33.5 °F 37.4 °F 87% 29.86 in - SW 13.8 mph - N/A   Clear
9:00 PM 41.0 °F 34.3 °F 37.4 °F 87% 29.86 in - SW 11.5 mph - N/A   Clear
9:30 PM 41.0 °F 34.3 °F 37.4 °F 87% 29.86 in - SW 11.5 mph - N/A   Clear
10:00 PM 39.2 °F 33.6 °F 35.6 °F 87% 29.86 in - SW 8.1 mph - N/A   Clear
10:30 PM 39.2 °F 33.6 °F 37.4 °F 93% 29.86 in - SW 8.1 mph - N/A   Clear
11:00 PM 41.0 °F 34.7 °F 37.4 °F 87% 29.86 in - WSW 10.4 mph - N/A   Clear
11:30 PM 41.0 °F 34.7 °F 37.4 °F 87% 29.89 in - SW 10.4 mph - N/A   Clear